Kosmos-1809

operational
NORAD ID: 17241 Int'l Des: 1986-101 Owner: IK Country: SU
LEOCIRCULARPOLAR

Über Kosmos-1809

Beschreibung wird geladen...

Live-Position

3D-Globus wird geladen...

Nächste Überflüge

Höhenverlauf

Altitude vs Time

uPlot chart will show altitude changes over time

Zweizeiliger Elementsatz

1 17241U 86101A 26063.36340549 .00000083 00000-0 60847-4 0 9992
2 17241 82.5342 4.1449 0016754 94.3320 26.0179 13.84480822980324
Epoch: 4. März 2026 • Age: 20 hours

Aktueller Status

Höhe 962.9 km
Geschwindigkeit 7.37 km/s
Subsatellitenpunkt -26.73°S, 91.82°E
Startdatum 18. Dez. 1986
Alter 39.2 years
Typ other

Technische Details

Klassifizierung Payload
Masse 1042.00 kg
Trockenmasse 1042.00 kg
Gesamtmasse 1042.00 kg
Länge 2.50 m
Durchmesser 1.50 m
Spannweite 23.00 m
Form Cyl + 2 Pan + Ant
Hersteller YUZH
Bus-Typ AUOS
Phasenstatus In Orbit
Besitzer/Staat IK/SU

Große Konstellationen

Loading constellations...